Toledo, OH

11:38 PM EDT on May 21, 2018 (GMT -0400)
Toledo Express

Weather History for KTOL - January, 2013

Change the Weather History Date:

Thursday, January 10, 2013

  Actual Average Record
Temperature  
Mean Temperature 31 °F 26 °F  
Max Temperature 40 °F 33 °F 59 °F (1950)
Min Temperature 22 °F 18 °F -12 °F (1875)
Degree Days  
Heating Degree Days 34 40  
Month to date heating degree days 388 391  
Since 1 July heating degree days 2639 2716  
Cooling Degree Days 0 0  
Month to date cooling degree days 0 0  
Year to date cooling degree days 0 0  
Moisture  
Dew Point 27 °F    
Average Humidity 78    
Maximum Humidity 92    
Minimum Humidity 64    
Precipitation  
Precipitation T in 0.07 in 0.56 in (2016)
Month to date precipitation T 0.74  
Year to date precipitation T 0.74  
Snow  
Snow 0.00 in 0.40 in - ()
Month to date snowfall T 3.5  
Since 1 July snowfall 7.0 13.0  
Snow Depth 0.00 in    
Sea Level Pressure  
Sea Level Pressure 30.43 in    
Wind  
Wind Speed 5 mph (East)    
Max Wind Speed 13 mph    
Max Gust Speed 16 mph    
Visibility 9 miles    
Events Rain    
T = Trace of Precipitation, MM = Missing Value Source: NWS Daily Summary

Daily Weather History Graph

Daily Weather History Graph

Search for Another Location

Airport or City:

Astronomy

Jan. 10, 2013 Rise Set
Actual Time 8:01 AM EST 5:24 PM EST
Civil Twilight 7:30 AM EST 5:55 PM EST
Nautical Twilight 6:55 AM EST 6:30 PM EST
Astronomical Twilight 6:22 AM EST 7:03 PM EST
Moon 6:40 AM EST (1/10) 4:31 PM EST (1/10)
Length of Visible Light 10h 25m
Length of Day
9h 23m
Waning Crescent, 2% of the Moon is Illuminated
Jan 10
Waning Crescent
Jan 11
New
Jan 18
First Quarter
Jan 26
Full
Feb 3
Last Quarter

Hourly Weather History & Observations

Time (EST) Temp. Windchill Dew Point Humidity Pressure Visibility Wind Dir Wind Speed Gust Speed Precip Events Conditions
12:52 AM 25.0 °F - 21.9 °F 88% 30.53 in 9.0 mi Calm Calm - N/A   Clear
1:52 AM 27.0 °F - 23.0 °F 85% 30.54 in 10.0 mi Calm Calm - N/A   Clear
2:52 AM 25.0 °F - 21.9 °F 88% 30.55 in 8.0 mi Calm Calm - N/A   Clear
3:52 AM 24.1 °F - 21.0 °F 88% 30.55 in 9.0 mi Calm Calm - N/A   Clear
4:52 AM 24.1 °F - 21.9 °F 91% 30.53 in 9.0 mi Calm Calm - N/A   Clear
5:52 AM 24.1 °F - 21.0 °F 88% 30.55 in 9.0 mi Calm Calm - N/A   Clear
7:52 AM 23.0 °F - 19.9 °F 88% 30.57 in 8.0 mi Calm Calm - N/A   Clear
8:52 AM 24.1 °F - 21.9 °F 91% 30.59 in 6.0 mi Calm Calm - N/A   Clear
9:52 AM 30.9 °F - 26.1 °F 82% 30.58 in 9.0 mi Calm Calm - N/A   Clear
10:52 AM 35.1 °F 29.3 °F 28.0 °F 76% 30.58 in 10.0 mi East 6.9 mph - N/A   Clear
11:52 AM 37.0 °F 29.3 °F 27.0 °F 67% 30.55 in 10.0 mi East 11.5 mph - N/A   Clear
12:52 PM 37.9 °F 30.9 °F 28.0 °F 68% 30.51 in 10.0 mi ESE 10.4 mph - N/A   Clear
1:52 PM 39.2 °F 32.5 °F 28.4 °F 65% 30.44 in 10.0 mi East 10.4 mph - N/A   Clear
2:52 PM 39.2 °F 33.0 °F 28.4 °F 65% 30.42 in 10.0 mi ESE 9.2 mph - N/A   Clear
3:52 PM 39.0 °F 33.4 °F 28.9 °F 67% 30.43 in 10.0 mi ESE 8.1 mph - N/A   Clear
4:52 PM 37.9 °F 32.7 °F 30.0 °F 73% 30.40 in 10.0 mi East 6.9 mph - N/A   Clear
5:52 PM 37.0 °F 31.6 °F 28.9 °F 73% 30.38 in 10.0 mi East 6.9 mph - N/A   Clear
6:52 PM 37.0 °F 31.6 °F 30.0 °F 76% 30.36 in 10.0 mi East 6.9 mph - 0.00 in Rain Light Rain
7:52 PM 37.0 °F 33.3 °F 30.0 °F 76% 30.35 in 10.0 mi East 4.6 mph - 0.00 in   Overcast
8:52 PM 37.0 °F 30.4 °F 30.0 °F 76% 30.30 in 10.0 mi East 9.2 mph - 0.00 in   Overcast
9:52 PM 37.9 °F 31.5 °F 28.9 °F 70% 30.25 in 10.0 mi East 9.2 mph - N/A   Overcast
10:22 PM 37.4 °F 30.3 °F 30.2 °F 75% 30.21 in 7.0 mi East 10.4 mph - 0.00 in Rain Light Rain
10:52 PM 37.0 °F 30.4 °F 30.0 °F 76% 30.21 in 9.0 mi East 9.2 mph - 0.00 in   Overcast
11:36 PM 37.4 °F 30.8 °F 30.2 °F 75% 30.15 in 8.0 mi East 9.2 mph - 0.00 in Rain Light Rain
11:52 PM 37.0 °F 29.8 °F 30.0 °F 76% 30.16 in 10.0 mi East 10.4 mph - 0.00 in   Overcast